This demonstration page uses our WeatherBlox Daily Observations layout. Learn more.

Hourly Observations for July 21, 2017

Temp ( °F °C ) Dew Point ( °F °C ) Humidity (%) Winds ( mph kmh ) Pressure ( in mb ) Visibility ( mi km ) Precip ( " mm )
12:15 am 00:15 Clear 84 29 72 22 66 66 WNW 7 11 29.97 1015 10 16.09344 0 0
12:35 am 00:35 Clear 84 29 72 22 66 66 NW 8 13 29.97 1015 10 16.09344 0 0
12:55 am 00:55 Clear 82 28 72 22 70 70 Calm 29.97 1015 10 16.09344 0 0
1:15 am 01:15 Clear 81 27 72 22 74 74 W 3 6 29.97 1015 10 16.09344 0 0
1:35 am 01:35 Clear 81 27 72 22 74 74 WNW 5 7 29.97 1015 10 16.09344 0 0
1:55 am 01:55 Clear 81 27 72 22 74 74 W 3 6 29.97 1015 10 16.09344 0 0
2:15 am 02:15 Clear 79 26 72 22 79 79 W 3 6 29.97 1015 10 16.09344 0 0
2:35 am 02:35 Clear 79 26 72 22 79 79 Calm 29.94 1014 10 16.09344 0 0
2:55 am 02:55 Clear 79 26 72 22 79 79 WNW 3 6 29.94 1014 10 16.09344 0 0
3:15 am 03:15 Clear 77 25 72 22 83 83 W 6 9 29.94 1014 10 16.09344 0 0
3:35 am 03:35 Clear 77 25 72 22 83 83 W 3 6 29.94 1014 10 16.09344 0 0
3:55 am 03:55 Clear 79 26 72 22 79 79 Calm 29.94 1014 10 16.09344 0 0
4:15 am 04:15 Clear 79 26 72 22 79 79 W 3 6 29.94 1014 10 16.09344 0 0
4:35 am 04:35 Clear 77 25 72 22 83 83 W 5 7 29.94 1014 10 16.09344 0 0
4:55 am 04:55 Clear 79 26 70 21 74 74 W 5 7 29.94 1014 10 16.09344 0 0
5:15 am 05:15 Clear 81 27 70 21 70 70 Calm 29.94 1014 10 16.09344 0 0
5:35 am 05:35 Clear 81 27 70 21 70 70 Calm 29.94 1014 10 16.09344 0 0
5:55 am 05:55 Clear 79 26 72 22 79 79 Calm 29.94 1014 10 16.09344 0 0
6:15 am 06:15 Sunny 79 26 72 22 79 79 Calm 29.94 1014 10 16.09344 0 0
6:35 am 06:35 Sunny 79 26 72 22 79 79 Calm 29.97 1015 10 16.09344 0 0
6:55 am 06:55 Sunny 77 25 72 22 83 83 Calm 29.97 1015 10 16.09344 0 0
7:15 am 07:15 Sunny 81 27 73 23 79 79 WSW 3 6 29.97 1015 10 16.09344 0 0
7:35 am 07:35 Sunny 82 28 73 23 74 74 NNW 3 6 29.97 1015 10 16.09344 0 0
7:55 am 07:55 Sunny 84 29 73 23 70 70 NNW 5 7 30 1016 10 16.09344 0 0
8:15 am 08:15 Sunny 86 30 73 23 66 66 WNW 3 6 30 1016 10 16.09344 0 0
8:35 am 08:35 Sunny 86 30 73 23 66 66 NW 3 6 30 1016 10 16.09344 0 0
8:55 am 08:55 Sunny 86 30 73 23 66 66 WNW 5 7 30 1016 10 16.09344 0 0
9:15 am 09:15 Sunny 86 30 75 24 70 70 NW 5 7 30 1016 10 16.09344 0 0
9:35 am 09:35 Sunny 88 31 73 23 62 62 WNW 9 15 29.97 1015 10 16.09344 0 0
9:55 am 09:55 Sunny 88 31 73 23 62 62 W 6 9 29.97 1015 10 16.09344 0 0
10:15 am 10:15 Sunny 88 31 73 23 62 62 W 3 6 29.97 1015 10 16.09344 0 0
10:35 am 10:35 Partly Cloudy 90 32 73 23 59 59 Calm 29.94 1014 10 16.09344 0 0
10:55 am 10:55 Partly Cloudy 90 32 73 23 59 59 WNW 3 6 29.94 1014 10 16.09344 0 0
11:15 am 11:15 Mostly Cloudy 90 32 73 23 59 59 W 3 6 29.94 1014 10 16.09344 0 0
11:35 am 11:35 Partly Cloudy 90 32 73 23 59 59 WNW 6 9 29.94 1014 10 16.09344 0 0
11:55 am 11:55 Partly Cloudy 90 32 73 23 59 59 WNW 5 7 29.94 1014 10 16.09344 0 0
12:15 pm 12:15 Partly Cloudy 91 33 72 22 52 52 Calm 29.94 1014 10 16.09344 0 0
12:35 pm 12:35 Mostly Cloudy 90 32 73 23 59 59 NW 5 7 29.94 1014 10 16.09344 0 0
12:55 pm 12:55 Partly Cloudy 91 33 73 23 56 56 Calm 29.94 1014 10 16.09344 0 0
1:15 pm 13:15 Partly Cloudy 91 33 73 23 56 56 SW 5 7 29.94 1014 10 16.09344 0 0
1:35 pm 13:35 Partly Cloudy 91 33 73 23 56 56 Calm 29.94 1014 10 16.09344 0 0
1:55 pm 13:55 Mostly Cloudy 93 34 73 23 53 53 Calm 29.94 1014 10 16.09344 0 0
2:15 pm 14:15 Partly Cloudy 93 34 73 23 53 53 W 7 11 29.91 1013 10 16.09344 0 0
2:35 pm 14:35 Mostly Cloudy with Light Rain 90 32 77 25 67 67 WSW 6 9 29.94 1014 7 11.265408 0 0
2:55 pm 14:55 Partly Cloudy 93 34 77 25 59 59 SW 8 13 29.94 1014 10 16.09344 0 0
3:15 pm 15:15 Sunny 93 34 75 24 56 56 SSW 8 13 29.91 1013 10 16.09344 0 0
3:35 pm 15:35 Sunny 93 34 73 23 53 53 SW 6 9 29.91 1013 10 16.09344 0 0
3:55 pm 15:55 Sunny 91 33 75 24 59 59 WSW 5 7 29.91 1013 10 16.09344 0 0
4:15 pm 16:15 Sunny 95 35 75 24 53 53 WSW 5 7 29.91 1013 10 16.09344 0 0
4:35 pm 16:35 Sunny 91 33 73 23 56 56 S 3 6 29.88 1012 10 16.09344 0 0
4:55 pm 16:55 Sunny 91 33 73 23 56 56 SSW 3 6 29.88 1012 10 16.09344 0 0
5:15 pm 17:15 Sunny 91 33 73 23 56 56 Calm 29.88 1012 10 16.09344 0 0
5:35 pm 17:35 Sunny 91 33 73 23 56 56 Calm 29.88 1012 10 16.09344 0 0
5:55 pm 17:55 Sunny 91 33 75 24 59 59 Calm 29.85 1011 10 16.09344 0 0
6:15 pm 18:15 Sunny 90 32 75 24 63 63 Calm 29.85 1011 10 16.09344 0 0
6:35 pm 18:35 Partly Cloudy 90 32 73 23 59 59 Calm 29.85 1011 10 16.09344 0 0
6:55 pm 18:55 Cloudy 90 32 79 26 71 71 WNW 3 6 29.88 1012 10 16.09344 0 0
7:15 pm 19:15 Mostly Cloudy 88 31 77 25 70 70 WNW 6 9 29.88 1012 10 16.09344 0 0
7:35 pm 19:35 Mostly Cloudy 86 30 77 25 75 75 WNW 5 7 29.88 1012 10 16.09344 0 0
7:55 pm 19:55 Partly Cloudy 86 30 73 23 66 66 NNW 5 7 29.88 1012 10 16.09344 0 0
8:15 pm 20:15 Partly Cloudy 82 28 73 23 74 74 Calm 29.91 1013 10 16.09344 0 0
8:35 pm 20:35 Partly Cloudy 82 28 73 23 74 74 N 3 6 29.91 1013 10 16.09344 0 0
8:55 pm 20:55 Clear 82 28 72 22 70 70 N 3 6 29.91 1013 10 16.09344 0 0
9:15 pm 21:15 Clear 82 28 72 22 70 70 N 3 6 29.94 1014 10 16.09344 0 0
9:35 pm 21:35 Clear 82 28 73 23 74 74 NW 3 6 29.94 1014 10 16.09344 0 0
9:55 pm 21:55 Clear 81 27 73 23 79 79 WNW 3 6 29.94 1014 10 16.09344 0 0
10:15 pm 22:15 Clear 81 27 73 23 79 79 Calm 29.94 1014 10 16.09344 0 0
10:35 pm 22:35 Clear 81 27 73 23 79 79 Calm 29.94 1014 10 16.09344 0 0
10:55 pm 22:55 Clear 81 27 73 23 79 79 NNW 3 6 29.94 1014 10 16.09344 0 0
11:15 pm 23:15 Clear 81 27 73 23 79 79 Calm 29.94 1014 10 16.09344 0 0
11:35 pm 23:35 Clear 81 27 73 23 79 79 Calm 29.94 1014 10 16.09344 0 0
11:55 pm 23:55 Clear 81 27 73 23 79 79 Calm 29.94 1014 10 16.09344 0 0

Powered by AerisWeather